Weather History for KBFW - April, 2014

Change the Weather History Date:

Tuesday, April 22, 2014

  Actual Average Record
Temperature  
Mean Temperature 37 °F -  
Max Temperature 48 °F 48 °F 73 °F (2007)
Min Temperature 26 °F 26 °F 21 °F (2002)
Degree Days  
Heating Degree Days 28    
Moisture  
Dew Point 27 °F    
Average Humidity 65    
Maximum Humidity 93    
Minimum Humidity 43    
Precipitation  
Precipitation 0.00 in - - ()
Sea Level Pressure  
Sea Level Pressure 30.04 in    
Wind  
Wind Speed 6 mph (NW)    
Max Wind Speed 10 mph    
Max Gust Speed 17 mph    
Visibility 10 miles    
Events      
Averages and records for this station are not official NWS values.
T = Trace of Precipitation, MM = Missing Value Source: NWS Daily Summary

Daily Weather History Graph

Daily Weather History Graph

Search for Another Location

Airport or City:

Trip Planner

Search our weather history database for the weather conditions in past years. The results will help you decide how hot, cold, wet, or windy it might be!

Date:

Astronomy

Apr. 22, 2014 Rise Set
Actual Time 6:04 AM CDT 8:04 PM CDT
Civil Twilight 5:31 AM CDT 8:37 PM CDT
Nautical Twilight 4:51 AM CDT 9:18 PM CDT
Astronomical Twilight 4:06 AM CDT 10:03 PM CDT
Moon 2:22 AM CDT (4/22) 12:39 PM CDT (4/22)
Length of Visible Light 15h 05m
Length of Day
13h 59m
Last Quarter, 46% of the Moon is Illuminated
Apr 22
Last Quarter
Apr 29
New
May 6
First Quarter
May 14
Full
May 21
Last Quarter

Hourly Weather History & Observations

Time (CDT) Temp. Windchill Dew Point Humidity Pressure Visibility Wind Dir Wind Speed Gust Speed Precip Events Conditions
12:13 AM 35.6 °F 29.9 °F 28.4 °F 75% 29.99 in 10.0 mi WNW 6.9 mph - N/A   Clear
12:34 AM 35.6 °F 28.0 °F 28.4 °F 75% 29.98 in 10.0 mi WNW 10.4 mph 17.3 mph N/A   Clear
12:53 AM 35.6 °F 29.9 °F 28.4 °F 75% 29.98 in 10.0 mi WNW 6.9 mph - N/A   Clear
1:13 AM 35.6 °F 28.0 °F 28.4 °F 75% 29.98 in 10.0 mi WNW 10.4 mph 16.1 mph N/A   Clear
1:33 AM 35.6 °F 30.7 °F 28.4 °F 75% 29.98 in 10.0 mi West 5.8 mph - N/A   Clear
1:53 AM 35.6 °F 28.6 °F 28.4 °F 75% 29.98 in 10.0 mi WNW 9.2 mph - N/A   Clear
2:14 AM 35.6 °F 29.9 °F 28.4 °F 75% 29.99 in 10.0 mi WNW 6.9 mph - N/A   Clear
2:33 AM 35.6 °F 30.7 °F 28.4 °F 75% 29.99 in 10.0 mi WNW 5.8 mph - N/A   Clear
2:53 AM 35.6 °F 32.8 °F 28.4 °F 75% 30.00 in 10.0 mi WNW 3.5 mph - N/A   Clear
3:14 AM 35.6 °F 29.9 °F 28.4 °F 75% 29.99 in 10.0 mi WNW 6.9 mph - N/A   Clear
3:33 AM 35.6 °F - 28.4 °F 75% 29.99 in 10.0 mi Calm Calm - N/A   Clear
3:54 AM 33.8 °F 30.8 °F 26.6 °F 75% 29.98 in 10.0 mi North 3.5 mph - N/A   Clear
4:13 AM 33.8 °F 30.8 °F 26.6 °F 75% 29.99 in 10.0 mi NNW 3.5 mph - N/A   Clear
4:33 AM 33.8 °F 30.8 °F 26.6 °F 75% 30.00 in 10.0 mi WNW 3.5 mph - N/A   Clear
4:53 AM 33.8 °F - 26.6 °F 75% 30.01 in 10.0 mi Calm Calm - N/A   Clear
5:13 AM 33.8 °F 29.6 °F 26.6 °F 75% 30.01 in 10.0 mi NNW 4.6 mph - N/A   Clear
5:33 AM 33.8 °F 26.4 °F 24.8 °F 70% 30.02 in 10.0 mi NNW 9.2 mph - N/A   Clear
5:53 AM 33.8 °F 27.0 °F 24.8 °F 70% 30.02 in 10.0 mi NNW 8.1 mph - N/A   Clear
6:13 AM 33.8 °F 28.6 °F 23.0 °F 65% 30.02 in 10.0 mi NW 5.8 mph - N/A   Clear
6:33 AM 33.8 °F - 24.8 °F 70% 30.03 in 10.0 mi Calm Calm - N/A   Clear
6:54 AM 33.8 °F - 24.8 °F 70% 30.03 in 10.0 mi Calm Calm - N/A   Clear
7:14 AM 33.8 °F 30.8 °F 24.8 °F 70% 30.03 in 10.0 mi NW 3.5 mph - N/A   Clear
7:33 AM 35.6 °F 31.7 °F 24.8 °F 65% 30.04 in 10.0 mi NW 4.6 mph - N/A   Clear
7:53 AM 35.6 °F 29.9 °F 26.6 °F 70% 30.04 in 10.0 mi NNW 6.9 mph - N/A   Clear
8:14 AM 37.4 °F 33.8 °F 26.6 °F 65% 30.04 in 10.0 mi WNW 4.6 mph - N/A   Clear
8:33 AM 37.4 °F 30.8 °F 26.6 °F 65% 30.05 in 10.0 mi NW 9.2 mph - N/A   Clear
8:53 AM 37.4 °F 31.4 °F 28.4 °F 70% 30.05 in 10.0 mi WNW 8.1 mph - N/A   Clear
9:14 AM 39.2 °F 34.2 °F 28.4 °F 65% 30.05 in 10.0 mi WNW 6.9 mph - N/A   Clear
9:34 AM 39.2 °F 34.2 °F 28.4 °F 65% 30.05 in 10.0 mi NW 6.9 mph - N/A   Clear
9:53 AM 41.0 °F 35.2 °F 28.4 °F 61% 30.05 in 10.0 mi NW 9.2 mph - N/A   Clear
10:14 AM 41.0 °F 35.8 °F 26.6 °F 57% 30.05 in 10.0 mi NNW 8.1 mph - N/A   Clear
10:33 AM 42.8 °F 38.6 °F 28.4 °F 57% 30.06 in 10.0 mi NNW 6.9 mph 16.1 mph N/A   Clear
10:54 AM 42.8 °F 38.0 °F 26.6 °F 53% 30.06 in 10.0 mi North 8.1 mph 16.1 mph N/A   Clear
11:13 AM 42.8 °F 37.0 °F 26.6 °F 53% 30.06 in 10.0 mi NNE 10.4 mph 16.1 mph N/A   Clear
11:34 AM 44.6 °F 39.7 °F 26.6 °F 49% 30.07 in 10.0 mi North 9.2 mph 16.1 mph N/A   Clear
11:54 AM 44.6 °F 41.4 °F 26.6 °F 49% 30.07 in 10.0 mi NW 5.8 mph - N/A   Clear
12:14 PM 44.6 °F 40.2 °F 26.6 °F 49% 30.06 in 10.0 mi NW 8.1 mph - N/A   Clear
12:34 PM 44.6 °F 39.7 °F 26.6 °F 49% 30.06 in 10.0 mi North 9.2 mph - N/A   Clear
12:54 PM 44.6 °F 42.2 °F 26.6 °F 49% 30.05 in 10.0 mi WNW 4.6 mph - N/A   Clear
1:13 PM 46.4 °F 42.4 °F 28.4 °F 50% 30.05 in 10.0 mi NW 8.1 mph - N/A   Clear
1:34 PM 46.4 °F 42.4 °F 28.4 °F 50% 30.05 in 10.0 mi NNW 8.1 mph - N/A   Clear
1:53 PM 48.2 °F - 28.4 °F 46% 30.05 in 10.0 mi WNW 6.9 mph - N/A   Clear
2:14 PM 48.2 °F - 26.6 °F 43% 30.05 in 10.0 mi North 5.8 mph - N/A   Clear
2:33 PM 48.2 °F - 28.4 °F 46% 30.05 in 10.0 mi NNW 6.9 mph - N/A   Clear
2:53 PM 48.2 °F - 28.4 °F 46% 30.05 in 10.0 mi NW 6.9 mph - N/A   Clear
3:14 PM 48.2 °F - 28.4 °F 46% 30.05 in 10.0 mi NW 4.6 mph - N/A   Clear
3:34 PM 48.2 °F - 30.2 °F 50% 30.04 in 10.0 mi East 9.2 mph - N/A   Clear
3:54 PM 46.4 °F 44.3 °F 28.4 °F 50% 30.04 in 10.0 mi SSE 4.6 mph - N/A   Clear
4:13 PM 46.4 °F 42.9 °F 28.4 °F 50% 30.04 in 10.0 mi SSE 6.9 mph - N/A   Clear
4:33 PM 46.4 °F 41.5 °F 30.2 °F 53% 30.04 in 10.0 mi SSE 10.4 mph - N/A   Clear
4:54 PM 46.4 °F 42.4 °F 28.4 °F 50% 30.04 in 10.0 mi SE 8.1 mph - N/A   Clear
5:13 PM 46.4 °F 42.9 °F 30.2 °F 53% 30.04 in 10.0 mi SSE 6.9 mph - N/A   Clear
5:33 PM 46.4 °F 42.9 °F 28.4 °F 50% 30.04 in 10.0 mi SE 6.9 mph - N/A   Clear
5:54 PM 44.6 °F 40.2 °F 28.4 °F 53% 30.04 in 10.0 mi SSE 8.1 mph - N/A   Clear
6:14 PM 44.6 °F 41.4 °F 28.4 °F 53% 30.05 in 10.0 mi SE 5.8 mph - N/A   Clear
6:33 PM 44.6 °F 43.1 °F 28.4 °F 53% 30.04 in 10.0 mi SE 3.5 mph - N/A   Clear
6:54 PM 44.6 °F 42.2 °F 28.4 °F 53% 30.04 in 10.0 mi South 4.6 mph - N/A   Clear
7:13 PM 42.8 °F 41.1 °F 28.4 °F 57% 30.04 in 10.0 mi SSW 3.5 mph - N/A   Clear
7:33 PM 41.0 °F - 26.6 °F 57% 30.04 in 10.0 mi Calm Calm - N/A   Clear
7:53 PM 39.2 °F - 26.6 °F 61% 30.05 in 10.0 mi Calm Calm - N/A   Clear
8:13 PM 37.4 °F - 26.6 °F 65% 30.05 in 10.0 mi Calm Calm - N/A   Clear
8:34 PM 33.8 °F - 26.6 °F 75% 30.06 in 10.0 mi Calm Calm - N/A   Clear
8:53 PM 33.8 °F - 26.6 °F 75% 30.06 in 10.0 mi Calm Calm - N/A   Clear
9:14 PM 32.0 °F - 26.6 °F 80% 30.07 in 10.0 mi Calm Calm - N/A   Clear
9:33 PM 30.2 °F - 24.8 °F 80% 30.07 in 10.0 mi Calm Calm - N/A   Clear
9:54 PM 28.4 °F - 24.8 °F 86% 30.07 in 10.0 mi Calm Calm - N/A   Clear
10:14 PM 28.4 °F - 24.8 °F 86% 30.08 in 10.0 mi Calm Calm - N/A   Clear
10:54 PM 26.6 °F - 24.8 °F 93% 30.09 in 10.0 mi Calm Calm - N/A   Clear
11:13 PM 26.6 °F - 24.8 °F 93% 30.08 in 10.0 mi Calm Calm - N/A   Clear
11:34 PM 26.6 °F - 24.8 °F 93% 30.09 in 10.0 mi Calm Calm - N/A   Clear
11:55 PM 26.6 °F - 24.8 °F 93% 30.09 in 10.0 mi Calm Calm - N/A   Clear